Location: USNO
(38.9242°N, 77.0663°W)
Time: 21:34:06
(UTC-04:00)

Daily predictions for brighter satellites

Satellite Brightness Start Highest point End
(mag) Time Altitude Azimuth Time Altitude Azimuth Time Altitude Azimuth
Cosmos 540 Rocket 3.5 20:59:28 10° NNW 21:04:40 78° ENE 21:09:49 10° SSE
deb Chang Zheng 4 4.0 21:01:07 10° NNE 21:05:16 43° E 21:09:24 10° S
GPS 2-04 Rocket1 3.4 21:01:31 10° W 21:05:45 47° S 21:09:53 10° ESE
Cosmos 2221 3.2 21:07:41 10° NNW 21:11:53 57° W 21:16:04 10° S
ATLAS 5 CENTAUR R/B 3.1 21:08:46 10° SW 21:13:27 49° NW 21:18:30 10° NNE
Cosmos 1378 3.4 21:13:25 10° SSW 21:17:09 74° W 21:20:55 10° N
Cosmos 968 Rocket 3.6 21:13:16 10° S 21:18:19 58° ESE 21:23:27 10° NNE
Cosmos 1766 Rocket 3.9 21:14:31 10° SSW 21:18:57 70° W 21:23:21 10° N
Delta 2 Rocket 4.4 21:18:38 10° SSW 21:21:03 18° SSE 21:23:21 10° ESE
DELTA 2 R/B (1) 3.7 21:22:10 10° W 21:27:45 83° N 21:33:18 10° E
Cosmos 332 Rocket 3.9 21:23:53 10° NNW 21:28:43 78° WSW 21:33:34 10° SSE
ATLAS CENTAUR R/B 1.5 21:26:54 10° NNW 21:31:28 80° WSW 21:35:23 11° SSE
CZ-4 SHROUD 4.1 21:30:32 13° SE 21:32:58 34° ENE 21:35:51 10° N
Envisat 3.1 21:28:00 10° SSE 21:33:01 65° ENE 21:38:04 10° N
Cosmos 2266 Rocket 4.4 21:27:16 10° SSE 21:33:12 44° E 21:39:05 10° NNE
Cosmos 1553 Rocket 4.1 21:27:56 10° N 21:34:22 78° E 21:40:41 10° S
Cosmos 1515 Rocket 3.8 21:30:52 10° N 21:35:15 56° E 21:39:22 11° SSE
YAOGAN 6 3.9 21:34:09 13° ESE 21:36:38 26° ENE 21:39:43 10° NNE
ARGOS 4.4 21:33:04 11° ESE 21:37:12 27° ENE 21:41:41 10° N
Cosmos 2219 4.5 21:35:03 11° SE 21:38:53 21° E 21:43:07 10° NE
Nimbus 7 Rocket 4.4 21:38:08 10° NNE 21:44:01 83° ESE 21:49:53 10° SSW
Cosmos 2292 4.1 21:41:22 10° N 21:44:24 85° E 21:47:08 13° S
ERS-1 Rocket 3.6 21:40:41 10° S 21:45:35 54° W 21:50:32 10° NNW
Cosmos 1441 Rocket 3.1 21:43:46 10° S 21:47:33 89° ESE 21:51:21 10° N
Cosmos 405 3.8 21:44:17 10° N 21:47:40 35° ENE 21:49:44 19° SE
Cosmos 1777 Rocket 4.0 21:43:26 10° S 21:48:39 67° ESE 21:53:53 10° NNE
Cosmos 1939 Rocket 3.4 21:49:48 10° S 21:53:43 56° W 21:57:35 10° NNW
H-2A R/B 3.8 21:51:09 12° ESE 21:54:20 20° ENE 21:58:09 10° NNE
Cosmos 2322 Rocket 2.4 21:50:04 10° NNW 21:55:40 71° WSW 22:00:36 13° SSE
SPOT 5 2.7 21:57:16 14° SSE 22:01:04 84° WSW 22:05:47 10° NNW
Cosmos 1437 3.2 22:02:32 26° SSE 22:03:53 41° E 22:07:01 10° NNE
SL-16 R/B 2.5 21:58:35 10° NNW 22:04:12 64° WSW 22:08:55 15° S
Cosmos 2151 3.1 22:01:50 18° SSE 22:04:46 54° E 22:08:52 10° NNE
Cosmos 371 Rocket 4.0 22:01:07 10° NNW 22:05:45 49° WSW 22:09:58 12° S
SPOT 1/Viking Rocket 3.7 22:02:26 20° SE 22:05:56 58° ENE 22:10:59 10° N
Meteor 2-2 Rocket 4.4 22:00:03 10° N 22:06:03 88° W 22:11:18 14° S
Cosmos 1980 Rocket 4.3 22:02:03 10° NW 22:06:13 21° W 22:10:23 10° SSW
Cosmos 1908 3.1 22:02:21 10° N 22:06:16 81° E 22:08:46 21° S
NOSS 3-1 (C) 4.2 22:03:18 17° SSE 22:06:35 29° ESE 22:11:49 10° NE
Cosmos 1726 4.0 22:04:08 10° NNE 22:06:39 17° ENE 22:07:30 16° E
Cosmos 2360 Rocket 2.6 22:01:46 10° NNW 22:07:17 52° ENE 22:10:47 22° SE
Cosmos 1151 Rocket 2.9 22:05:21 10° N 22:09:40 78° E 22:12:25 22° SSE
Cosmos 1680 Rocket 3.7 22:11:51 10° N 22:17:00 56° ENE 22:19:50 26° SE
H-2A R/B 3.8 22:14:54 10° SSW 22:18:51 30° W 22:22:50 10° NW
Cosmos 923 Rocket 3.9 22:14:38 10° NNW 22:19:52 79° ENE 22:22:50 26° SSE
Cosmos 1707 Rocket 4.3 22:17:45 10° N 22:21:48 37° ENE 22:23:16 29° ESE
Cosmos 1666 Rocket 4.2 22:23:05 30° SE 22:24:21 37° E 22:28:25 10° NNE
Cosmos 1437 Rocket 3.6 22:22:07 10° NNW 22:25:45 44° W 22:28:14 18° SSW
Cosmos 1674 3.7 22:26:17 11° SSW 22:29:50 46° W 22:33:34 10° N
Cosmos 2227 Rocket 4.0 22:31:10 14° E 22:31:10 14° E 22:33:28 10° ENE
Cosmos 1833 4.4 22:25:04 10° SSW 22:30:47 72° WNW 22:36:29 10° NNE
Cosmos 1898 Rocket 4.2 22:29:54 29° SE 22:31:03 32° E 22:35:37 10° NE
Cosmos 2333 Rocket 4.2 22:30:11 10° N 22:33:59 18° NE 22:37:13 12° E
CZ-4B R/B 3.8 22:29:48 10° N 22:35:03 69° WNW 22:40:14 10° SSW
CZ-4C R/B 3.3 22:34:28 43° ESE 22:35:06 50° ENE 22:38:29 10° N
SL-08 RB Rocket 3.6 22:36:33 35° SSE 22:38:25 83° ENE 22:42:54 10° N
Cosmos 1300 2.9 22:34:44 10° N 22:38:31 56° E 22:39:16 46° SE
Cosmos 2058 2.8 22:39:47 34° S 22:41:30 88° E 22:45:37 10° N
Cosmos 1328 4.2 22:40:36 23° SSW 22:42:56 59° W 22:46:51 10° N
Cosmos 1626 4.4 22:44:32 13° ENE 22:44:32 13° ENE 22:45:42 10° NE
GPS 2-04 Rocket1 4.4 22:41:59 10° WSW 22:45:05 21° SSW 22:45:05 21° SSW
COSMOS 2428 3.1 22:40:33 10° NNW 22:46:06 52° ENE 22:48:25 33° ESE
Meteor 1-4 Rocket 3.5 22:44:59 10° N 22:48:27 33° ENE 22:48:33 33° E
DELTA 2 DEB (DPAF) 4.1 22:49:23 43° SSE 22:50:51 87° ENE 22:55:22 10° NNW
Cosmos 2242 Rocket 3.9 22:48:52 10° N 22:53:13 49° E 22:54:01 43° ESE
Cosmos 304 Rocket 4.0 22:48:32 10° NNW 22:53:18 62° WSW 22:55:08 35° S
Landsat 7 3.7 22:51:46 42° SSE 22:53:23 84° ENE 22:58:10 10° NNW
SL-23 DEB 3.7 22:50:13 10° NW 22:54:38 68° NE 22:55:10 56° E
USA 32 4.1 22:51:38 10° N 22:56:51 61° E 22:58:25 42° SE
Cosmos 2297 Rocket 3.9 22:59:14 16° E 22:59:14 16° E 23:01:54 10° ENE
Spot 4 4.2 22:57:33 40° ESE 22:58:47 51° ENE 23:03:29 10° N
IGS 5A 3.5 23:00:13 53° ESE 23:00:49 61° ENE 23:04:56 10° N
Cosmos 1455 3.8 22:58:34 10° NNE 23:01:18 22° ENE 23:01:18 22° ENE
SeaSat 1 4.0 23:01:34 20° E 23:03:27 25° NE 23:07:26 10° N
Cosmos 2237 4.1 23:02:06 10° NNW 23:07:51 84° ENE 23:09:42 45° SSE
NOSS 3-1 (A) 3.3 23:05:11 32° S 23:07:58 65° ESE 23:14:19 10° NE
Terra 1.7 23:08:07 53° SSE 23:09:15 84° ENE 23:14:02 10° NNW
Cosmos 2219 Rocket 2.9 23:05:42 10° N 23:10:59 41° ENE 23:12:41 33° E
DELTA 2 R/B (1) 3.5 23:08:42 10° W 23:14:13 70° SSW 23:15:33 50° SE
SL-14 R/B 3.8 23:13:39 43° SW 23:14:34 54° W 23:18:28 10° N
Cosmos 292 Rocket 4.0 23:11:16 10° N 23:15:56 52° ENE 23:16:37 48° E
Cosmos 1703 3.1 23:16:03 81° E 23:16:03 81° E 23:19:56 10° N
ARGOS 4.2 23:14:35 23° SSW 23:17:15 37° W 23:22:15 10° NNW
Cosmos 2298 Rocket 4.1 23:15:37 32° SSW 23:18:08 77° WNW 23:23:29 10° NNE
Cosmos 1862 Rocket 4.1 23:15:45 10° N 23:19:53 42° ENE 23:19:53 42° ENE
CARTOSAT-1 3.7 23:20:21 57° SSW 23:20:58 66° WSW 23:25:16 10° NNW
Cosmos 2219 4.0 23:17:02 10° SW 23:22:37 51° WNW 23:28:13 10° NNE
Cosmos 1271 Rocket 2.7 23:22:51 10° NNW 23:26:28 76° NW 23:26:28 76° NW
Cosmos 1633 Rocket 3.8 23:26:23 37° SW 23:27:39 48° W 23:31:54 10° N
Sich 1 4.0 23:28:03 32° SW 23:29:29 43° W 23:33:44 10° N
Cosmos 2333 4.1 23:24:10 10° NNW 23:29:55 87° WSW 23:31:14 55° SSE
ATLAS 2AS CENTAUR R/B 3.3 23:29:35 39° SE 23:30:40 41° ESE 23:37:59 10° NE
H-2A R/B 2.6 23:31:47 40° SSW 23:33:16 52° W 23:38:33 10° NNW
Cosmos 1937 Rocket 3.4 23:34:58 55° SSW 23:36:11 86° WNW 23:41:26 10° NNE
Cosmos 2082 3.8 23:36:11 52° ESE 23:36:29 52° ESE 23:42:02 10° NNE
Cosmos 2237 Rocket 2.8 23:31:02 10° N 23:36:30 44° ENE 23:37:50 38° E
Cosmos 1726 3.8 23:38:49 10° NNW 23:42:02 27° W 23:42:11 27° W
ALOS 2 4.3 23:45:44 22° ENE 23:45:48 22° ENE 23:49:10 10° NNE
Nadezhda 1 Rocket 3.9 23:40:03 10° N 23:46:08 79° W 23:47:39 53° SSW
Cosmos 2360 Rocket 4.0 23:46:47 10° NW 23:50:50 20° W 23:52:34 18° SW
Cosmos 990 Rocket 3.8 23:53:10 71° SW 23:53:44 85° WNW 23:58:53 10° NNE
